Tracking 25710 objects as of 6-Jul-2022
HD Live streaming from Space Station
objects crossing your sky now

FENGYUN 1C DEB

Track FENGYUN 1C DEB now!
10-day predictions


NORAD ID: 31627
Int'l Code: 1999-025CAH
Perigee: 774.4 km
Apogee: 859.5 km
Inclination: 98.6 °
Period: 101.1 minutes
Semi major axis: 7187 km
RCS: 0.013 m2 (small)
Launch date: May 10, 1999
Source: People's Republic of China (PRC)
Launch site: Taiyaun Space Center, China (TSC)

Note: This is SATELLITE DEBRIS
aabbcc
Your satellite tracking list
Your tracking list is empty




NASA's NSSDC Master Catalog

Two Line Element Set (TLE):
1 31627U 99025CAH 22184.39966969  .00000906  00000-0  40132-3 0  9996
2 31627  98.6445 234.4011 0059193 246.5537 112.9412 14.24620590467911
Source of the keplerian elements: AFSPC